Temp_Advection
nan nan nan nan nan nan nan nan nan nan nan nan nan nan nan nan nan nan nan nan nan nan
nan 0 0 0 0 0 -0 -0 0 0 0 0 0 0 -0 -0 -0 -0 -0 -0 -0 nan
nan -0 0 0 0 0 0 -0 -0 0 0 0 0 0 0 0 0 -0 -0 -0 -0 nan
nan 0 0 0 0 0 0 0 0 -0 -0 -0 0 0 0 0 0 0 0 -0 -0 nan
nan 0 0 0 0 0 0 0 0 0 0 0 0 0 0 0 0 0 0 0 -0 nan
nan 1 0 0 0 0 0 0 0 0 0 0 0 0 0 0 0 0 0 0 0 nan
nan 1 1 0 -0 -0 0 0 0 0 0 -0 0 0 0 0 0 0 0 0 0 nan
nan 1 1 0 0 0 0 0 0 -0 0 0 0 0 0 0 0 0 0 0 0 nan
nan 1 1 1 1 0 0 0 0 0 0 0 0 0 0 0 0 0 0 0 0 nan
nan 0 1 1 1 1 1 0 0 0 0 0 0 0 0 0 0 0 0 0 0 nan
nan 0 0 1 1 1 1 0 0 0 1 0 0 1 0 0 0 0 0 0 0 nan
nan -0 0 0 1 1 1 0 0 0 1 1 -0 0 1 0 0 0 0 0 0 nan
nan -0 -0 0 1 1 1 1 0 1 1 1 0 1 1 0 0 0 0 0 0 nan
nan nan nan nan nan nan nan nan nan nan nan nan nan nan nan nan nan nan nan nan nan nan
Wind_Speed
15 15 14 13 12 12 12 13 12 13 13 13 13 12 12 11 10 9 9 9 9 9
18 17 16 15 14 12 13 13 12 12 12 13 13 12 11 11 10 9 8 8 8 9
21 20 19 18 15 14 13 13 13 12 12 12 11 11 10 9 8 8 8 7 8 8
23 23 22 21 18 16 15 14 14 14 13 12 11 9 8 7 7 7 7 7 8 8
24 25 26 23 20 18 17 16 15 14 14 13 12 10 8 7 6 6 6 7 7 7
25 27 27 25 23 21 19 17 16 15 14 13 14 11 10 9 8 8 7 8 8 8
24 25 25 25 26 24 21 19 18 16 15 14 15 12 12 11 10 9 9 8 9 9
24 23 23 25 27 27 25 23 20 18 17 15 15 13 11 12 12 12 11 10 9 10
24 24 24 25 27 29 28 26 24 21 18 17 16 14 12 12 12 11 12 12 10 8
25 25 26 26 27 28 29 28 27 23 18 20 17 17 12 12 11 11 10 10 12 9
26 26 26 28 29 29 28 29 28 23 19 20 19 18 15 12 11 11 11 9 10 10
27 26 27 29 30 30 29 29 29 26 22 21 20 18 18 13 12 11 10 11 10 12
26 25 26 27 29 30 30 30 30 30 26 25 19 20 20 15 13 12 12 12 11 12
23 25 26 27 28 28 29 30 31 30 25 22 19 20 19 17 14 13 14 13 13 14
Wind_Direction
286 289 296 303 309 316 322 324 327 329 329 328 327 328 322 319 318 314 308 312 317 324
279 284 289 292 296 308 313 315 317 321 324 325 324 325 323 319 317 313 318 316 315 321
275 277 280 282 288 297 300 305 308 313 317 319 321 324 324 318 319 316 312 316 315 322
273 273 273 275 279 285 290 297 303 310 314 315 314 316 317 316 319 319 321 319 319 329
274 270 267 268 270 274 279 287 296 303 308 310 308 310 311 306 305 312 319 319 325 329
284 275 269 264 264 267 271 278 285 293 298 301 300 304 305 302 295 293 298 305 313 320
295 290 281 271 265 264 265 268 273 279 284 286 290 296 298 294 288 282 284 290 302 312
298 293 285 274 266 264 264 266 268 268 272 275 279 284 282 284 285 286 283 283 289 300
292 288 285 281 274 266 264 262 260 262 266 269 270 275 274 272 276 274 281 284 282 280
290 286 285 283 278 270 264 262 261 262 265 268 264 269 269 273 273 270 271 276 286 283
292 287 287 283 279 274 266 261 258 257 260 263 265 268 272 270 268 265 270 274 284 294
297 290 287 282 280 277 270 263 255 250 246 255 262 262 266 262 266 267 266 273 287 292
294 291 289 288 283 280 273 266 255 246 238 247 251 259 255 255 257 260 262 265 276 280
298 295 294 293 286 280 272 267 256 248 247 245 245 252 252 252 257 258 258 265 269 276
Height
1513 1512 1509 1508 1506 1504 1502 1501 1499 1496 1494 1492 1490 1489 1487 1485 1483 1482 1480 1478 1477 1475
1509 1508 1507 1505 1503 1501 1500 1498 1496 1494 1492 1490 1488 1486 1484 1482 1481 1479 1477 1476 1474 1473
1506 1505 1503 1502 1500 1498 1497 1496 1494 1491 1489 1487 1485 1483 1481 1480 1479 1477 1475 1474 1472 1470
1500 1499 1499 1498 1497 1495 1494 1493 1491 1489 1487 1484 1481 1479 1477 1476 1475 1474 1473 1472 1470 1469
1493 1493 1492 1492 1491 1490 1490 1488 1487 1485 1484 1482 1479 1477 1474 1472 1471 1470 1470 1469 1468 1467
1488 1487 1485 1486 1486 1485 1485 1484 1483 1482 1480 1479 1477 1475 1473 1470 1468 1466 1465 1464 1464 1463
1483 1482 1481 1482 1481 1480 1479 1478 1478 1477 1475 1473 1471 1471 1471 1470 1469 1465 1462 1461 1460 1460
1476 1476 1475 1474 1474 1474 1474 1475 1474 1472 1470 1469 1467 1466 1465 1464 1465 1466 1463 1459 1457 1456
1471 1469 1468 1467 1467 1468 1468 1468 1467 1467 1466 1465 1464 1462 1461 1460 1459 1458 1460 1461 1457 1453
1466 1464 1462 1461 1460 1459 1460 1462 1462 1463 1463 1462 1460 1458 1457 1456 1456 1456 1453 1453 1457 1452
1461 1459 1457 1455 1453 1453 1453 1453 1454 1457 1458 1458 1457 1455 1454 1453 1451 1450 1451 1448 1449 1450
1454 1452 1451 1449 1447 1446 1446 1447 1447 1448 1448 1450 1452 1450 1449 1449 1449 1446 1446 1446 1444 1445
1447 1445 1444 1442 1441 1440 1440 1439 1440 1439 1438 1439 1443 1444 1443 1443 1444 1442 1442 1443 1441 1441
1440 1438 1436 1435 1434 1433 1434 1435 1436 1436 1436 1434 1435 1437 1437 1437 1438 1438 1437 1436 1437 1437